Gulf - Port au Port: Past 24 Hour Conditions

 

Cartwright Airport

01:00 PM ADT 30 September 2014
This table is a summary of hourly weather conditions for the past 24 hours.
Date / Time
(ADT)
Wind(knots) Conditions Visibility(km) Pressure(kPa) Air tempC) Relative humidity(%) Dew pointC)
30 September 2014
13:00 SSW 10 Cloudy 24 101.2 7 57 -1
12:00 SSW 10 Cloudy 24 101.4 5 54 -4
11:00 SW 14 Cloudy 24 101.5 4 59 -3
10:00 SW 13 gust 18 Mostly Cloudy 24 101.7 3 60 -4
9:00 WSW 17 Mostly Cloudy 24 101.8 2 64 -4
8:00 WSW 15 Mainly Sunny 24 101.9 2 70 -3
7:00 WSW 15 Mainly Sunny 24 101.9 2 69 -4
6:00 SW 15 Mostly Cloudy 24 101.9 2 69 -4
5:00 WSW 10 Cloudy 24 101.9 1 70 -3
4:00 WSW 12 Mostly Cloudy 24 101.9 1 63 -5
3:00 WSW 13 Mostly Cloudy 24 102.0 1 63 -5
2:00 WSW 14 Mostly Cloudy 24 102.0 1 57 -6
1:00 WSW 12 Mostly Cloudy 24 102.0 1 59 -6
0:00 W 14 Mostly Cloudy 24 102.0 1 59 -6
29 September 2014
23:00 W 13 Mostly Cloudy 24 102.1 1 57 -6
22:00 WNW 9 Mostly Cloudy 24 102.1 1 57 -6
21:00 W 11 Cloudy 24 102.0 2 55 -6
20:00 W 8 Mainly Clear 24 102.0 1 57 -6
19:00 WNW 12 Mostly Cloudy 24 102.0 2 59 -6
18:00 WNW 14 gust 29 Partly Cloudy 24 101.9 3 52 -6
17:00 WNW 12 gust 20 Cloudy 24 101.8 3 50 -6
16:00 WNW 13 gust 25 Cloudy 24 101.7 3 51 -6
15:00 WNW 15 gust 30 Mostly Cloudy 24 101.7 4 50 -6
14:00 WNW 17 gust 36 Mostly Cloudy 24 101.6 4 48 -6
13:00 WNW 14 gust 26 Mainly Sunny 24 101.6 4 55 -4
 
Map of Atlantic - Newfoundland marine weather areas Southwestern Grand Banks - 44138 Banquereau - 44139 Tail of the Bank - 44140 Nickerson Bank - 44251 Northeast Burgeo Bank - 44255 Blanc-Sablon Airport Cap Whittle Chevery Natashquan Airport Heath Point Miscou Island Grand Étang Ingonish Beach North Mountain St.Paul Island J.A. Douglas McCurdy Sydney Airport Charlottetown Airport East Point North Cape Argentia Bonavista Burgeo Cape Race Corner Brook Daniel's Harbour Englee Ferolle Point La Scie Port aux Basques Rocky Harbour Sagona Island St. Anthony Airport St. John's Int'l Airport St. Lawrence Stephenville Airport Twillingate Winterland Wreckhouse Cartwright Airport Mary's Harbour Grates Cove Pool's Island Marticot Island Long Pond Îles de la Madeleine Airport
Legend: buoyBuoy land stationLand Station